TimeEDT,TemperatureF,Dew PointF,Humidity,Sea Level PressureIn,VisibilityMPH,Wind Direction,Wind SpeedMPH,Gust SpeedMPH,PrecipitationIn,Events,Conditions,WindDirDegrees,DateUTC
12:53 AM,78.1,73.9,87,29.97,10.0,SE,8.1,-,N/A,,Mostly Cloudy,130,2013-04-05 04:53:00
1:13 AM,78.8,73.4,83,29.96,10.0,SE,5.8,-,N/A,Thunderstorm,Thunderstorm,130,2013-04-05 05:13:00
1:53 AM,75.0,69.1,82,29.95,10.0,SE,13.8,-,N/A,Thunderstorm,Thunderstorm,130,2013-04-05 05:53:00
2:05 AM,75.2,69.8,83,29.94,10.0,ESE,12.7,-,N/A,,Mostly Cloudy,120,2013-04-05 06:05:00
2:53 AM,75.9,71.1,85,29.94,10.0,ESE,9.2,-,N/A,,Overcast,110,2013-04-05 06:53:00
3:20 AM,73.4,66.2,78,29.99,10.0,NNW,18.4,24.2,N/A,,Overcast,340,2013-04-05 07:20:00
3:31 AM,69.8,64.4,83,29.98,3.0,NNE,16.1,28.8,0.09,Rain,Heavy Rain,30,2013-04-05 07:31:00
3:41 AM,69.8,66.2,88,29.97,4.0,North,19.6,27.6,0.21,Rain,Heavy Rain,10,2013-04-05 07:41:00
3:53 AM,69.1,64.9,87,29.98,10.0,North,17.3,24.2,0.24,Rain,Light Rain,10,2013-04-05 07:53:00
4:34 AM,69.8,66.2,88,29.96,10.0,NNE,13.8,23.0,0.00,,Mostly Cloudy,20,2013-04-05 08:34:00
4:53 AM,70.0,66.0,87,29.95,10.0,NNE,13.8,23.0,0.00,,Mostly Cloudy,30,2013-04-05 08:53:00
5:53 AM,72.0,66.0,81,29.95,10.0,NE,11.5,17.3,N/A,,Overcast,40,2013-04-05 09:53:00
6:53 AM,73.0,64.9,76,29.95,10.0,NE,10.4,-,N/A,,Overcast,50,2013-04-05 10:53:00
7:53 AM,73.0,66.0,79,29.96,10.0,East,6.9,-,N/A,,Mostly Cloudy,90,2013-04-05 11:53:00
8:53 AM,73.0,66.0,79,29.98,10.0,ENE,3.5,-,N/A,,Mostly Cloudy,60,2013-04-05 12:53:00
9:34 AM,73.4,66.2,78,30.01,6.0,NNW,10.4,-,0.02,Rain,Rain,330,2013-04-05 13:34:00
9:36 AM,73.4,66.2,78,30.01,5.0,NNW,11.5,-,0.02,Rain-Thunderstorm,Heavy Thunderstorms and Rain,330,2013-04-05 13:36:00
9:53 AM,70.0,66.0,87,29.99,4.0,NNE,8.1,-,0.10,Rain-Thunderstorm,Heavy Thunderstorms and Rain,20,2013-04-05 13:53:00
10:53 AM,69.1,66.0,90,29.97,10.0,ESE,9.2,-,0.07,Rain-Thunderstorm,Light Thunderstorms and Rain,110,2013-04-05 14:53:00
11:18 AM,71.6,66.2,83,29.96,10.0,SE,9.2,-,0.01,Rain,Light Rain,130,2013-04-05 15:18:00
11:53 AM,72.0,66.9,84,29.94,10.0,SSE,13.8,-,0.03,Rain,Light Rain,150,2013-04-05 15:53:00
12:53 PM,73.0,68.0,84,29.92,10.0,SE,18.4,29.9,0.00,,Partly Cloudy,140,2013-04-05 16:53:00
1:53 PM,73.9,68.0,82,29.88,10.0,SSE,13.8,-,N/A,,Overcast,150,2013-04-05 17:53:00
2:53 PM,75.0,68.0,79,29.88,6.0,South,8.1,-,0.01,Rain,Rain,180,2013-04-05 18:53:00
3:53 PM,75.0,68.0,79,29.87,10.0,NNW,5.8,-,0.03,Rain,Light Rain,340,2013-04-05 19:53:00
4:13 PM,73.4,68.0,83,29.85,4.0,North,9.2,-,0.00,Rain,Rain,10,2013-04-05 20:13:00
4:20 PM,71.6,68.0,88,29.86,1.8,Variable,3.5,-,0.11,Rain,Heavy Rain,0,2013-04-05 20:20:00
4:24 PM,71.6,68.0,88,29.86,2.0,North,11.5,16.1,0.13,Rain,Heavy Rain,350,2013-04-05 20:24:00
4:30 PM,71.6,68.0,88,29.86,1.8,NNW,16.1,20.7,0.23,Rain,Heavy Rain,340,2013-04-05 20:30:00
4:42 PM,68.0,66.2,94,29.85,3.0,NW,15.0,23.0,0.38,Rain,Heavy Rain,320,2013-04-05 20:42:00
4:46 PM,69.8,64.4,83,29.87,1.5,West,17.3,21.9,0.41,Rain,Heavy Rain,280,2013-04-05 20:46:00
4:53 PM,68.0,64.0,87,29.85,0.8,WSW,20.7,27.6,0.69,Rain,Heavy Rain,240,2013-04-05 20:53:00
4:55 PM,68.0,64.4,88,29.85,1.0,SW,19.6,27.6,0.05,Rain,Heavy Rain,230,2013-04-05 20:55:00
5:04 PM,66.2,62.6,88,29.84,1.8,West,10.4,-,0.21,Rain,Heavy Rain,260,2013-04-05 21:04:00
5:08 PM,66.2,62.6,88,29.85,3.0,WSW,11.5,-,0.23,Rain,Rain,240,2013-04-05 21:08:00
5:19 PM,69.8,64.4,83,29.85,9.0,Variable,3.5,-,0.24,Rain,Light Rain,0,2013-04-05 21:19:00
5:46 PM,69.8,66.2,88,29.86,10.0,Calm,Calm,-,0.24,,Overcast,0,2013-04-05 21:46:00
5:53 PM,72.0,66.9,84,29.86,10.0,Calm,Calm,-,0.24,,Mostly Cloudy,0,2013-04-05 21:53:00
6:49 PM,71.6,66.2,83,29.87,10.0,NNW,9.2,-,N/A,,Overcast,330,2013-04-05 22:49:00
6:53 PM,72.0,66.0,81,29.87,10.0,NNW,6.9,-,N/A,,Overcast,330,2013-04-05 22:53:00
7:00 PM,71.6,66.2,83,29.87,10.0,NNW,8.1,-,N/A,,Overcast,330,2013-04-05 23:00:00
7:37 PM,71.6,66.2,83,29.89,10.0,NNW,12.7,-,N/A,,Overcast,340,2013-04-05 23:37:00
7:53 PM,70.0,66.0,87,29.91,10.0,NNW,13.8,23.0,N/A,,Overcast,340,2013-04-05 23:53:00
8:30 PM,69.8,64.4,83,29.93,10.0,North,16.1,24.2,N/A,,Overcast,350,2013-04-06 00:30:00
8:51 PM,69.8,64.4,83,29.94,10.0,NNW,15.0,23.0,N/A,,Overcast,340,2013-04-06 00:51:00
8:53 PM,70.0,64.0,81,29.94,10.0,North,13.8,23.0,N/A,,Overcast,350,2013-04-06 00:53:00
9:24 PM,69.8,64.4,83,29.96,10.0,North,12.7,20.7,N/A,,Overcast,350,2013-04-06 01:24:00
9:53 PM,70.0,62.1,76,29.97,10.0,NNW,15.0,24.2,N/A,,Mostly Cloudy,340,2013-04-06 01:53:00
10:30 PM,69.8,62.6,78,29.99,10.0,NNW,15.0,23.0,N/A,,Mostly Cloudy,330,2013-04-06 02:30:00
10:39 PM,69.8,60.8,73,29.99,10.0,NNW,13.8,20.7,N/A,,Scattered Clouds,330,2013-04-06 02:39:00
10:49 PM,69.8,60.8,73,29.99,10.0,NNW,15.0,-,N/A,,Mostly Cloudy,330,2013-04-06 02:49:00
10:53 PM,69.1,61.0,75,29.99,10.0,NNW,15.0,-,N/A,,Scattered Clouds,340,2013-04-06 02:53:00
11:53 PM,69.1,60.1,73,29.99,10.0,NNW,15.0,-,N/A,,Partly Cloudy,330,2013-04-06 03:53:00